Time,TemperatureF,DewpointF,PressureIn,WindDirection,WindDirectionDegrees,WindSpeedMPH,WindSpeedGustMPH,Humidity,HourlyPrecipIn,Conditions,Clouds,dailyrainin,SolarRadiationWatts/m^2,SoftwareType,DateUTC
2013-04-16 00:01:00,38.9,29.9,30.00,WSW,253,4.8,7.2,70,0.00,CLR,,0.24,0.0,WeatherDisplay:10.37,2013-04-16 05:01:00,
2013-04-16 00:06:00,38.6,30.0,30.00,West,259,4.6,6.0,71,0.00,RA,,0.00,0.0,WeatherDisplay:10.37,2013-04-16 05:06:00,
2013-04-16 00:11:00,38.5,29.9,30.00,West,273,5.6,10.8,71,0.00,CLR,,0.00,0.0,WeatherDisplay:10.37,2013-04-16 05:11:00,
2013-04-16 00:16:00,38.3,29.7,30.00,West,270,4.0,6.0,71,0.00,CLR,,0.00,0.0,WeatherDisplay:10.37,2013-04-16 05:16:00,
2013-04-16 00:21:00,38.2,29.6,30.00,West,275,3.9,6.9,71,0.00,CLR,,0.00,0.0,WeatherDisplay:10.37,2013-04-16 05:21:00,
2013-04-16 00:26:00,38.0,29.4,30.00,West,269,5.4,6.0,71,0.00,CLR,,0.00,0.0,WeatherDisplay:10.37,2013-04-16 05:26:00,
2013-04-16 00:31:00,37.9,29.3,30.00,WSW,255,5.4,7.2,71,0.00,CLR,,0.00,0.0,WeatherDisplay:10.37,2013-04-16 05:31:00,
2013-04-16 00:36:00,37.8,29.2,30.00,WSW,257,2.3,4.8,71,0.00,CLR,,0.00,0.0,WeatherDisplay:10.37,2013-04-16 05:36:00,
2013-04-16 00:41:00,37.5,28.9,30.00,West,271,3.9,6.0,71,0.00,CLR,,0.00,0.0,WeatherDisplay:10.37,2013-04-16 05:41:00,
2013-04-16 00:46:00,37.3,28.8,30.00,West,261,0.9,4.8,71,0.00,CLR,,0.00,0.0,WeatherDisplay:10.37,2013-04-16 05:46:00,
2013-04-16 00:51:00,37.2,28.7,30.00,West,275,3.1,6.0,71,0.00,CLR,,0.00,0.0,WeatherDisplay:10.37,2013-04-16 05:51:00,
2013-04-16 00:56:00,37.0,28.5,30.00,West,262,0.0,0.0,71,0.00,CLR,,0.00,0.0,WeatherDisplay:10.37,2013-04-16 05:56:00,
2013-04-16 01:01:00,36.9,28.7,30.00,West,265,0.9,4.8,72,0.00,CLR,,0.00,0.0,WeatherDisplay:10.37,2013-04-16 06:01:00,
2013-04-16 01:06:00,36.9,28.7,30.00,WSW,239,3.4,4.8,72,0.00,CLR,,0.00,0.0,WeatherDisplay:10.37,2013-04-16 06:06:00,
2013-04-16 01:11:00,36.6,28.4,30.00,WSW,257,2.0,3.6,72,0.00,CLR,,0.00,0.0,WeatherDisplay:10.37,2013-04-16 06:11:00,
2013-04-16 01:16:00,36.6,28.4,30.00,West,278,2.3,6.0,72,0.00,CLR,,0.00,0.0,WeatherDisplay:10.37,2013-04-16 06:16:00,
2013-04-16 01:21:00,36.5,28.7,30.00,West,266,3.9,4.8,73,0.00,CLR,,0.00,0.0,WeatherDisplay:10.37,2013-04-16 06:21:00,
2013-04-16 01:26:00,36.2,28.4,30.00,WSW,252,4.6,6.0,73,0.00,SCT,,0.00,0.0,WeatherDisplay:10.37,2013-04-16 06:26:00,
2013-04-16 01:31:00,36.2,28.4,29.99,West,278,2.7,4.8,73,0.00,SCT,,0.00,0.0,WeatherDisplay:10.37,2013-04-16 06:31:00,
2013-04-16 01:36:00,36.0,28.2,29.99,West,269,0.0,1.2,73,0.00,SCT,,0.00,0.0,WeatherDisplay:10.37,2013-04-16 06:36:00,
2013-04-16 01:41:00,35.9,28.1,29.99,West,260,1.1,4.6,73,0.00,CLR,,0.00,0.0,WeatherDisplay:10.37,2013-04-16 06:41:00,
2013-04-16 01:46:00,35.9,28.1,30.00,West,265,4.1,4.8,73,0.00,CLR,,0.00,0.0,WeatherDisplay:10.37,2013-04-16 06:46:00,
2013-04-16 01:51:00,35.9,28.1,30.00,West,275,0.0,5.8,73,0.00,CLR,,0.00,0.0,WeatherDisplay:10.37,2013-04-16 06:51:00,
2013-04-16 01:56:00,35.8,28.0,30.00,West,271,1.5,3.6,73,0.00,CLR,,0.00,0.0,WeatherDisplay:10.37,2013-04-16 06:56:00,
2013-04-16 02:01:00,35.8,28.0,30.00,West,275,4.3,4.8,73,0.00,CLR,,0.00,0.0,WeatherDisplay:10.37,2013-04-16 07:01:00,
2013-04-16 02:06:00,35.6,27.8,30.00,WSW,247,2.0,6.0,73,0.00,CLR,,0.00,0.0,WeatherDisplay:10.37,2013-04-16 07:06:00,
2013-04-16 02:11:00,35.6,27.8,30.00,West,275,5.1,7.2,73,0.00,CLR,,0.00,0.0,WeatherDisplay:10.37,2013-04-16 07:11:00,
2013-04-16 02:16:00,35.6,27.8,29.99,WSW,252,0.4,5.8,73,0.00,CLR,,0.00,0.0,WeatherDisplay:10.37,2013-04-16 07:16:00,
2013-04-16 02:21:00,35.6,27.8,29.99,WNW,290,2.9,4.8,73,0.00,CLR,,0.00,0.0,WeatherDisplay:10.37,2013-04-16 07:21:00,
2013-04-16 02:26:00,35.6,27.8,29.99,West,268,2.7,4.8,73,0.00,CLR,,0.00,0.0,WeatherDisplay:10.37,2013-04-16 07:26:00,
2013-04-16 02:31:00,35.5,27.7,30.00,West,275,0.8,3.5,73,0.00,CLR,,0.00,0.0,WeatherDisplay:10.37,2013-04-16 07:31:00,
2013-04-16 02:36:00,35.5,28.0,30.00,West,271,1.2,2.4,74,0.00,CLR,,0.00,0.0,WeatherDisplay:10.37,2013-04-16 07:36:00,
2013-04-16 02:41:00,35.3,27.8,30.00,WSW,246,4.4,6.0,74,0.00,CLR,,0.00,0.0,WeatherDisplay:10.37,2013-04-16 07:41:00,
2013-04-16 02:46:00,35.2,27.7,30.00,WSW,254,2.8,3.6,74,0.00,CLR,,0.00,0.0,WeatherDisplay:10.37,2013-04-16 07:46:00,
2013-04-16 02:51:00,34.9,27.8,30.00,WSW,254,0.0,1.2,75,0.00,CLR,,0.00,0.0,WeatherDisplay:10.37,2013-04-16 07:51:00,
2013-04-16 02:56:00,34.7,27.9,30.00,SW,223,4.5,4.8,76,0.00,CLR,,0.00,0.0,WeatherDisplay:10.37,2013-04-16 07:56:00,
2013-04-16 03:01:00,34.7,27.9,30.00,WSW,253,2.5,4.8,76,0.00,CLR,,0.00,0.0,WeatherDisplay:10.37,2013-04-16 08:01:00,
2013-04-16 03:06:00,34.7,27.9,30.00,WSW,249,3.6,4.8,76,0.00,CLR,,0.00,0.0,WeatherDisplay:10.37,2013-04-16 08:06:00,
2013-04-16 03:11:00,34.7,27.9,30.00,West,261,2.0,3.6,76,0.00,CLR,,0.00,0.0,WeatherDisplay:10.37,2013-04-16 08:11:00,
2013-04-16 03:16:00,34.7,27.9,30.00,WSW,244,4.3,4.8,76,0.00,CLR,,0.00,0.0,WeatherDisplay:10.37,2013-04-16 08:16:00,
2013-04-16 03:21:00,34.6,28.1,30.00,WSW,240,1.3,3.5,77,0.00,CLR,,0.00,0.0,WeatherDisplay:10.37,2013-04-16 08:21:00,
2013-04-16 03:26:00,34.4,27.9,30.00,WSW,248,3.3,4.8,77,0.00,CLR,,0.00,0.0,WeatherDisplay:10.37,2013-04-16 08:26:00,
2013-04-16 03:31:00,34.4,27.9,30.00,WSW,257,0.0,0.0,77,0.00,CLR,,0.00,0.0,WeatherDisplay:10.37,2013-04-16 08:31:00,
2013-04-16 03:36:00,34.1,28.0,30.00,WSW,257,0.1,1.2,78,0.00,CLR,,0.00,0.0,WeatherDisplay:10.37,2013-04-16 08:36:00,
2013-04-16 03:41:00,34.1,28.0,30.00,WSW,256,0.0,3.5,78,0.00,CLR,,0.00,0.0,WeatherDisplay:10.37,2013-04-16 08:41:00,
2013-04-16 03:46:00,34.0,27.9,30.02,SW,233,4.0,4.6,78,0.00,SCT,,0.00,0.0,WeatherDisplay:10.37,2013-04-16 08:46:00,
2013-04-16 03:51:00,34.0,27.9,30.02,SW,231,2.6,3.6,78,0.00,SCT,,0.00,0.0,WeatherDisplay:10.37,2013-04-16 08:51:00,
2013-04-16 03:56:00,34.0,28.2,30.02,SW,232,3.9,4.8,79,0.00,SCT,,0.00,0.0,WeatherDisplay:10.37,2013-04-16 08:56:00,
2013-04-16 04:01:00,34.0,28.2,30.02,SW,236,4.5,4.8,79,0.00,SCT,,0.00,0.0,WeatherDisplay:10.37,2013-04-16 09:01:00,
2013-04-16 04:06:00,34.0,28.2,30.02,SW,223,0.7,3.6,79,0.00,SCT,,0.00,0.0,WeatherDisplay:10.37,2013-04-16 09:06:00,
2013-04-16 04:11:00,33.8,28.0,30.02,WSW,237,4.8,6.0,79,0.00,SCT,,0.00,0.0,WeatherDisplay:10.37,2013-04-16 09:11:00,
2013-04-16 04:16:00,33.8,28.0,30.04,SW,232,4.1,4.8,79,0.00,BKN,,0.00,0.0,WeatherDisplay:10.37,2013-04-16 09:16:00,
2013-04-16 04:21:00,33.8,28.0,30.04,WSW,251,3.5,6.0,79,0.00,OVC,,0.00,0.0,WeatherDisplay:10.37,2013-04-16 09:21:00,
2013-04-16 04:26:00,33.8,28.0,30.04,WSW,255,3.6,6.9,79,0.00,OVC,,0.00,0.0,WeatherDisplay:10.37,2013-04-16 09:26:00,
2013-04-16 04:31:00,33.8,28.0,30.05,West,265,0.6,2.4,79,0.00,OVC,,0.00,0.0,WeatherDisplay:10.37,2013-04-16 09:31:00,
2013-04-16 04:36:00,33.8,28.0,30.05,West,266,1.4,3.6,79,0.00,OVC,,0.00,0.0,WeatherDisplay:10.37,2013-04-16 09:36:00,
2013-04-16 04:41:00,33.8,28.0,30.05,WSW,248,2.0,3.6,79,0.00,OVC,,0.00,0.0,WeatherDisplay:10.37,2013-04-16 09:41:00,
2013-04-16 04:46:00,33.8,28.0,30.05,West,263,0.0,2.3,79,0.00,OVC,,0.00,0.0,WeatherDisplay:10.37,2013-04-16 09:46:00,
2013-04-16 04:51:00,34.0,28.2,30.05,WSW,240,2.8,4.6,79,0.00,OVC,,0.00,0.0,WeatherDisplay:10.37,2013-04-16 09:51:00,
2013-04-16 04:56:00,34.0,28.2,30.05,WSW,242,3.7,5.8,79,0.00,OVC,,0.00,0.0,WeatherDisplay:10.37,2013-04-16 09:56:00,
2013-04-16 05:01:00,34.0,28.2,30.05,West,260,4.8,7.2,79,0.00,OVC,,0.00,0.0,WeatherDisplay:10.37,2013-04-16 10:01:00,
2013-04-16 05:06:00,34.0,28.2,30.05,West,259,0.0,1.2,79,0.00,OVC,,0.00,0.0,WeatherDisplay:10.37,2013-04-16 10:06:00,
2013-04-16 05:11:00,34.0,28.5,30.05,SW,219,3.3,3.6,80,0.00,OVC,,0.00,0.0,WeatherDisplay:10.37,2013-04-16 10:11:00,
2013-04-16 05:16:00,34.0,28.5,30.06,SW,224,0.6,3.6,80,0.00,OVC,,0.00,0.0,WeatherDisplay:10.37,2013-04-16 10:16:00,
2013-04-16 05:21:00,34.0,28.5,30.06,WSW,242,4.1,4.8,80,0.00,OVC,,0.00,0.0,WeatherDisplay:10.37,2013-04-16 10:21:00,
2013-04-16 05:26:00,34.0,28.5,30.06,WSW,253,2.1,4.8,80,0.00,OVC,,0.00,0.0,WeatherDisplay:10.37,2013-04-16 10:26:00,
2013-04-16 05:31:00,34.1,28.6,30.07,West,261,2.2,3.5,80,0.00,OVC,,0.00,0.0,WeatherDisplay:10.37,2013-04-16 10:31:00,
2013-04-16 05:36:00,34.1,28.6,30.07,West,267,0.1,1.2,80,0.00,OVC,,0.00,0.0,WeatherDisplay:10.37,2013-04-16 10:36:00,
2013-04-16 05:41:00,34.1,28.6,30.07,West,262,2.0,3.6,80,0.00,OVC,,0.00,0.0,WeatherDisplay:10.37,2013-04-16 10:41:00,
2013-04-16 05:46:00,34.1,28.6,30.07,WSW,256,3.7,8.4,80,0.00,OVC,,0.00,0.0,WeatherDisplay:10.37,2013-04-16 10:46:00,
2013-04-16 05:51:00,34.1,28.6,30.07,West,272,3.3,8.1,80,0.00,OVC,,0.00,0.0,WeatherDisplay:10.37,2013-04-16 10:51:00,
2013-04-16 05:56:00,34.1,28.6,30.07,WSW,243,2.4,4.6,80,0.00,OVC,,0.00,0.0,WeatherDisplay:10.37,2013-04-16 10:56:00,
2013-04-16 06:01:00,34.1,28.6,30.07,WSW,241,3.5,4.8,80,0.00,OVC,,0.00,0.0,WeatherDisplay:10.37,2013-04-16 11:01:00,
2013-04-16 06:06:00,34.1,28.6,30.07,WSW,254,2.4,4.8,80,0.00,OVC,,0.00,0.0,WeatherDisplay:10.37,2013-04-16 11:06:00,
2013-04-16 06:11:00,34.1,28.6,30.07,West,260,0.3,3.6,80,0.00,OVC,,0.00,0.0,WeatherDisplay:10.37,2013-04-16 11:11:00,
2013-04-16 06:16:00,34.1,28.6,30.07,WSW,251,4.2,7.2,80,0.00,OVC,,0.00,0.0,WeatherDisplay:10.37,2013-04-16 11:16:00,
2013-04-16 06:21:00,34.1,28.6,30.07,WSW,250,0.1,2.3,80,0.00,OVC,,0.00,0.0,WeatherDisplay:10.37,2013-04-16 11:21:00,
2013-04-16 06:26:00,34.0,28.5,30.07,WSW,256,3.6,4.8,80,0.00,OVC,,0.00,5.0,WeatherDisplay:10.37,2013-04-16 11:26:00,
2013-04-16 06:31:00,34.1,28.6,30.08,West,269,1.8,4.8,80,0.00,OVC,,0.00,5.0,WeatherDisplay:10.37,2013-04-16 11:31:00,
2013-04-16 06:36:00,34.0,28.5,30.08,WSW,248,0.8,4.8,80,0.00,OVC,,0.00,7.0,WeatherDisplay:10.37,2013-04-16 11:36:00,
2013-04-16 06:41:00,34.1,28.6,30.08,WSW,242,2.0,3.6,80,0.00,OVC,,0.00,11.0,WeatherDisplay:10.37,2013-04-16 11:41:00,
2013-04-16 06:46:00,34.1,28.6,30.10,West,265,2.2,4.6,80,0.00,OVC,,0.00,14.0,WeatherDisplay:10.37,2013-04-16 11:46:00,
2013-04-16 06:51:00,34.0,28.8,30.10,West,273,1.8,6.9,81,0.00,OVC,,0.00,16.0,WeatherDisplay:10.37,2013-04-16 11:51:00,
2013-04-16 06:56:00,34.0,28.8,30.10,WSW,244,3.4,3.6,81,0.00,OVC,,0.00,21.0,WeatherDisplay:10.37,2013-04-16 11:56:00,
2013-04-16 07:01:00,34.1,28.9,30.11,WSW,250,0.6,3.6,81,0.00,OVC,,0.00,23.0,WeatherDisplay:10.37,2013-04-16 12:01:00,
2013-04-16 07:06:00,34.1,28.9,30.11,WSW,257,0.0,2.4,81,0.00,OVC,,0.00,26.0,WeatherDisplay:10.37,2013-04-16 12:06:00,
2013-04-16 07:11:00,34.3,29.1,30.11,WSW,242,3.1,4.8,81,0.00,OVC,,0.00,30.0,WeatherDisplay:10.37,2013-04-16 12:11:00,
2013-04-16 07:16:00,34.3,28.8,30.13,WSW,257,1.8,2.4,80,0.00,OVC,,0.00,35.0,WeatherDisplay:10.37,2013-04-16 12:16:00,
2013-04-16 07:21:00,34.4,28.9,30.13,WSW,248,5.2,6.0,80,0.00,OVC,,0.00,39.0,WeatherDisplay:10.37,2013-04-16 12:21:00,
2013-04-16 07:26:00,34.4,28.9,30.13,WSW,242,5.1,6.0,80,0.00,OVC,,0.00,49.0,WeatherDisplay:10.37,2013-04-16 12:26:00,
2013-04-16 07:31:00,34.4,28.9,30.13,WSW,249,3.2,6.0,80,0.00,OVC,,0.00,44.0,WeatherDisplay:10.37,2013-04-16 12:31:00,
2013-04-16 07:36:00,34.6,29.1,30.13,WSW,245,2.1,4.6,80,0.00,OVC,,0.00,51.0,WeatherDisplay:10.37,2013-04-16 12:36:00,
2013-04-16 07:41:00,34.6,29.1,30.13,West,259,2.2,3.6,80,0.00,OVC,,0.00,63.0,WeatherDisplay:10.37,2013-04-16 12:41:00,
2013-04-16 07:46:00,34.7,29.2,30.13,WSW,242,5.1,6.0,80,0.00,OVC,,0.00,72.0,WeatherDisplay:10.37,2013-04-16 12:46:00,
2013-04-16 07:51:00,34.7,29.2,30.13,West,277,2.7,3.6,80,0.00,OVC,,0.00,74.0,WeatherDisplay:10.37,2013-04-16 12:51:00,
2013-04-16 07:56:00,34.7,29.2,30.13,West,259,3.0,4.8,80,0.00,OVC,,0.00,69.0,WeatherDisplay:10.37,2013-04-16 12:56:00,
2013-04-16 08:01:00,34.7,28.9,30.15,West,269,2.2,5.8,79,0.00,OVC,,0.00,76.0,WeatherDisplay:10.37,2013-04-16 13:01:00,
2013-04-16 08:06:00,34.7,28.9,30.15,West,269,4.8,7.2,79,0.00,OVC,,0.00,86.0,WeatherDisplay:10.37,2013-04-16 13:06:00,
2013-04-16 08:11:00,34.9,29.4,30.15,West,279,3.9,6.0,80,0.00,OVC,,0.00,90.0,WeatherDisplay:10.37,2013-04-16 13:11:00,
2013-04-16 08:16:00,34.9,29.0,30.15,West,275,2.8,7.2,79,0.00,OVC,,0.00,77.0,WeatherDisplay:10.37,2013-04-16 13:16:00,
2013-04-16 08:21:00,35.0,29.1,30.15,WNW,292,2.9,7.2,79,0.00,OVC,,0.00,77.0,WeatherDisplay:10.37,2013-04-16 13:21:00,
2013-04-16 08:26:00,35.2,28.7,30.15,WNW,296,1.0,3.6,77,0.00,OVC,,0.00,88.0,WeatherDisplay:10.37,2013-04-16 13:26:00,
2013-04-16 08:31:00,35.3,28.8,30.16,WNW,287,1.1,3.6,77,0.00,OVC,,0.00,84.0,WeatherDisplay:10.37,2013-04-16 13:31:00,
2013-04-16 08:36:00,35.5,29.0,30.16,WSW,242,4.4,10.8,77,0.00,OVC,,0.00,116.0,WeatherDisplay:10.37,2013-04-16 13:36:00,
2013-04-16 08:41:00,35.3,27.8,30.16,WNW,289,5.6,8.1,74,0.00,OVC,,0.00,130.0,WeatherDisplay:10.37,2013-04-16 13:41:00,
2013-04-16 08:46:00,35.5,28.0,30.16,NW,313,2.1,4.8,74,0.00,OVC,,0.00,132.0,WeatherDisplay:10.37,2013-04-16 13:46:00,
2013-04-16 08:51:00,35.6,28.5,30.16,West,280,4.3,7.2,75,0.00,OVC,,0.00,118.0,WeatherDisplay:10.37,2013-04-16 13:51:00,
2013-04-16 08:56:00,35.6,28.5,30.16,West,270,4.8,8.4,75,0.00,OVC,,0.00,137.0,WeatherDisplay:10.37,2013-04-16 13:56:00,
2013-04-16 09:01:00,35.6,28.1,30.16,NW,323,4.3,4.8,74,0.00,OVC,,0.00,156.0,WeatherDisplay:10.37,2013-04-16 14:01:00,
2013-04-16 09:06:00,35.8,28.3,30.16,WNW,297,4.2,4.8,74,0.00,OVC,,0.00,151.0,WeatherDisplay:10.37,2013-04-16 14:06:00,
2013-04-16 09:11:00,35.8,28.3,30.16,West,275,1.5,5.8,74,0.00,OVC,,0.00,178.0,WeatherDisplay:10.37,2013-04-16 14:11:00,
2013-04-16 09:16:00,35.9,28.7,30.16,NW,320,5.3,8.4,75,0.00,OVC,,0.00,156.0,WeatherDisplay:10.37,2013-04-16 14:16:00,
2013-04-16 09:21:00,35.8,28.3,30.16,WNW,294,4.5,9.2,74,0.00,OVC,,0.00,149.0,WeatherDisplay:10.37,2013-04-16 14:21:00,
2013-04-16 09:26:00,35.9,28.4,30.16,WNW,295,2.2,6.0,74,0.00,OVC,,0.00,151.0,WeatherDisplay:10.37,2013-04-16 14:26:00,
2013-04-16 09:31:00,35.9,28.4,30.17,WNW,289,6.0,9.6,74,0.00,OVC,,0.00,174.0,WeatherDisplay:10.37,2013-04-16 14:31:00,
2013-04-16 09:36:00,36.0,28.5,30.17,NNW,327,5.4,6.0,74,0.00,OVC,,0.00,186.0,WeatherDisplay:10.37,2013-04-16 14:36:00,
2013-04-16 09:41:00,35.9,28.4,30.17,NW,315,1.8,5.8,74,0.00,OVC,,0.00,202.0,WeatherDisplay:10.37,2013-04-16 14:41:00,
2013-04-16 09:46:00,36.2,28.7,30.17,NW,314,3.0,3.6,74,0.00,OVC,,0.00,195.0,WeatherDisplay:10.37,2013-04-16 14:46:00,
2013-04-16 09:51:00,36.2,28.4,30.17,North,355,4.8,9.6,73,0.00,OVC,,0.00,213.0,WeatherDisplay:10.37,2013-04-16 14:51:00,
2013-04-16 09:56:00,36.2,28.4,30.17,WNW,294,3.5,7.2,73,0.00,OVC,,0.00,211.0,WeatherDisplay:10.37,2013-04-16 14:56:00,
2013-04-16 10:01:00,36.2,28.4,30.19,NNW,327,2.9,6.9,73,0.00,OVC,,0.00,234.0,WeatherDisplay:10.37,2013-04-16 15:01:00,
2013-04-16 10:06:00,36.3,28.1,30.19,WNW,298,5.7,7.2,72,0.00,OVC,,0.00,234.0,WeatherDisplay:10.37,2013-04-16 15:06:00,
2013-04-16 10:11:00,36.5,28.3,30.19,NW,322,5.8,8.1,72,0.00,OVC,,0.00,260.0,WeatherDisplay:10.37,2013-04-16 15:11:00,
2013-04-16 10:16:00,36.6,28.8,30.19,WNW,286,4.7,8.4,73,0.00,OVC,,0.00,267.0,WeatherDisplay:10.37,2013-04-16 15:16:00,
2013-04-16 10:21:00,36.8,28.6,30.19,NW,309,2.3,3.6,72,0.00,OVC,,0.00,290.0,WeatherDisplay:10.37,2013-04-16 15:21:00,
2013-04-16 10:26:00,37.0,28.8,30.19,NNW,328,3.4,6.0,72,0.00,OVC,,0.00,302.0,WeatherDisplay:10.37,2013-04-16 15:26:00,
2013-04-16 10:31:00,37.0,27.4,30.19,WNW,293,5.6,8.1,68,0.00,OVC,,0.00,299.0,WeatherDisplay:10.37,2013-04-16 15:31:00,
2013-04-16 10:36:00,37.0,28.5,30.19,NW,309,3.3,9.2,71,0.00,OVC,,0.00,315.0,WeatherDisplay:10.37,2013-04-16 15:36:00,
2013-04-16 10:41:00,37.3,28.4,30.19,NNW,344,5.3,6.0,70,0.00,OVC,,0.00,309.0,WeatherDisplay:10.37,2013-04-16 15:41:00,
2013-04-16 10:46:00,37.3,28.8,30.19,NW,306,6.0,9.6,71,0.00,OVC,,0.00,311.0,WeatherDisplay:10.37,2013-04-16 15:46:00,
2013-04-16 10:51:00,37.5,28.6,30.19,NW,313,1.6,6.0,70,0.00,OVC,,0.00,325.0,WeatherDisplay:10.37,2013-04-16 15:51:00,
2013-04-16 10:56:00,37.6,28.7,30.19,WNW,283,2.1,6.9,70,0.00,OVC,,0.00,346.0,WeatherDisplay:10.37,2013-04-16 15:56:00,
2013-04-16 11:01:00,37.5,28.9,30.21,NW,313,4.6,6.0,71,0.00,OVC,,0.00,315.0,WeatherDisplay:10.37,2013-04-16 16:01:00,
2013-04-16 11:06:00,37.8,29.2,30.21,WNW,286,2.0,4.8,71,0.00,OVC,,0.00,364.0,WeatherDisplay:10.37,2013-04-16 16:06:00,
2013-04-16 11:11:00,37.8,28.9,30.21,NW,315,3.5,4.8,70,0.00,OVC,,0.00,397.0,WeatherDisplay:10.37,2013-04-16 16:11:00,
2013-04-16 11:16:00,38.0,29.1,30.21,NW,326,3.6,4.8,70,0.00,OVC,,0.00,392.0,WeatherDisplay:10.37,2013-04-16 16:16:00,
2013-04-16 11:21:00,38.2,28.9,30.21,WNW,286,6.4,8.4,69,0.00,OVC,,0.00,374.0,WeatherDisplay:10.37,2013-04-16 16:21:00,
2013-04-16 11:26:00,38.5,29.2,30.21,WNW,301,2.4,4.8,69,0.00,OVC,,0.00,439.0,WeatherDisplay:10.37,2013-04-16 16:26:00,
2013-04-16 11:31:00,38.8,29.5,30.21,NNW,330,1.1,3.6,69,0.00,OVC,,0.00,431.0,WeatherDisplay:10.37,2013-04-16 16:31:00,
2013-04-16 11:36:00,39.2,29.5,30.21,NW,320,1.7,4.8,68,0.00,OVC,,0.00,1239.0,WeatherDisplay:10.37,2013-04-16 16:36:00,
2013-04-16 11:41:00,39.5,29.4,30.21,NW,324,1.9,3.6,67,0.00,OVC,,0.00,654.0,WeatherDisplay:10.37,2013-04-16 16:41:00,
2013-04-16 11:46:00,39.9,29.1,30.21,NNW,336,1.8,4.8,65,0.00,OVC,,0.00,399.0,WeatherDisplay:10.37,2013-04-16 16:46:00,
2013-04-16 11:51:00,39.8,29.0,30.21,NW,311,5.9,8.1,65,0.00,OVC,,0.00,520.0,WeatherDisplay:10.37,2013-04-16 16:51:00,
2013-04-16 11:56:00,39.9,29.8,30.21,NW,325,3.9,4.8,67,0.00,OVC,,0.00,448.0,WeatherDisplay:10.37,2013-04-16 16:56:00,
2013-04-16 12:01:00,40.2,29.0,30.23,West,269,6.0,7.2,64,0.00,OVC,,0.00,1132.0,WeatherDisplay:10.37,2013-04-16 17:01:00,
2013-04-16 12:06:00,40.2,29.0,30.23,WNW,286,5.6,9.6,64,0.00,OVC,,0.00,385.0,WeatherDisplay:10.37,2013-04-16 17:06:00,
2013-04-16 12:11:00,40.6,29.4,30.23,NW,325,0.3,3.6,64,0.00,OVC,,0.00,1090.0,WeatherDisplay:10.37,2013-04-16 17:11:00,
2013-04-16 12:16:00,40.8,29.2,30.23,WNW,292,4.0,4.8,63,0.00,OVC,,0.00,1146.0,WeatherDisplay:10.37,2013-04-16 17:16:00,
2013-04-16 12:21:00,40.8,29.2,30.23,WNW,298,5.6,8.4,63,0.00,OVC,,0.00,1048.0,WeatherDisplay:10.37,2013-04-16 17:21:00,
2013-04-16 12:26:00,41.1,29.5,30.23,NNW,340,5.6,8.4,63,0.00,OVC,,0.00,990.0,WeatherDisplay:10.37,2013-04-16 17:26:00,
2013-04-16 12:31:00,41.8,29.3,30.23,NNW,327,3.9,7.2,61,0.00,OVC,,0.00,1009.0,WeatherDisplay:10.37,2013-04-16 17:31:00,
2013-04-16 12:36:00,41.5,29.8,30.23,NE,47,2.2,4.8,63,0.00,OVC,,0.00,425.0,WeatherDisplay:10.37,2013-04-16 17:36:00,
2013-04-16 12:41:00,42.5,30.4,30.23,North,350,3.2,4.8,62,0.00,OVC,,0.00,947.0,WeatherDisplay:10.37,2013-04-16 17:41:00,
2013-04-16 12:46:00,42.1,29.6,30.24,WNW,300,1.6,3.6,61,0.00,BKN,,0.00,329.0,WeatherDisplay:10.37,2013-04-16 17:46:00,
2013-04-16 12:51:00,42.2,30.1,30.24,NNW,346,1.7,4.8,62,0.00,BKN,,0.00,1014.0,WeatherDisplay:10.37,2013-04-16 17:51:00,
2013-04-16 12:56:00,42.8,29.9,30.24,WNW,302,6.0,7.2,60,0.00,BKN,,0.00,944.0,WeatherDisplay:10.37,2013-04-16 17:56:00,
2013-04-16 13:01:00,42.8,29.9,30.24,NW,323,5.7,7.2,60,0.00,BKN,,0.00,923.0,WeatherDisplay:10.37,2013-04-16 18:01:00,
2013-04-16 13:06:00,43.5,30.9,30.24,WNW,293,4.0,7.2,61,0.00,BKN,,0.00,946.0,WeatherDisplay:10.37,2013-04-16 18:06:00,
2013-04-16 13:11:00,43.8,30.4,30.24,WNW,290,3.5,6.0,59,0.00,BKN,,0.00,930.0,WeatherDisplay:10.37,2013-04-16 18:11:00,
2013-04-16 13:16:00,42.9,29.5,30.23,NW,324,8.0,9.6,59,0.00,BKN,,0.00,912.0,WeatherDisplay:10.37,2013-04-16 18:16:00,
2013-04-16 13:21:00,42.9,30.0,30.23,NW,311,6.1,8.4,60,0.00,SCT,,0.00,891.0,WeatherDisplay:10.37,2013-04-16 18:21:00,
2013-04-16 13:26:00,43.3,29.9,30.23,NW,320,5.4,8.4,59,0.00,SCT,,0.00,905.0,WeatherDisplay:10.37,2013-04-16 18:26:00,
2013-04-16 13:31:00,43.2,29.8,30.24,West,279,7.0,9.6,59,0.00,SCT,,0.00,896.0,WeatherDisplay:10.37,2013-04-16 18:31:00,
2013-04-16 13:36:00,44.1,31.1,30.24,NNE,24,2.3,7.2,60,0.00,SCT,,0.00,877.0,WeatherDisplay:10.37,2013-04-16 18:36:00,
2013-04-16 13:41:00,44.5,29.8,30.24,NW,317,3.4,6.9,56,0.00,CLR,,0.00,870.0,WeatherDisplay:10.37,2013-04-16 18:41:00,
2013-04-16 13:46:00,44.6,30.3,30.23,North,360,4.8,9.2,57,0.00,CLR,,0.00,860.0,WeatherDisplay:10.37,2013-04-16 18:46:00,
2013-04-16 13:51:00,44.6,29.9,30.23,WNW,298,6.0,6.0,56,0.00,CLR,,0.00,860.0,WeatherDisplay:10.37,2013-04-16 18:51:00,
2013-04-16 13:56:00,44.8,30.5,30.23,North,355,2.7,4.8,57,0.00,CLR,,0.00,854.0,WeatherDisplay:10.37,2013-04-16 18:56:00,
2013-04-16 14:01:00,44.3,30.4,30.24,NW,313,4.6,6.0,58,0.00,CLR,,0.00,851.0,WeatherDisplay:10.37,2013-04-16 19:01:00,
2013-04-16 14:06:00,44.9,30.1,30.24,NNW,334,3.1,6.0,56,0.00,CLR,,0.00,840.0,WeatherDisplay:10.37,2013-04-16 19:06:00,
2013-04-16 14:12:00,45.4,30.6,30.24,NW,314,4.3,8.4,56,0.00,CLR,,0.00,835.0,WeatherDisplay:10.37,2013-04-16 19:12:00,
2013-04-16 14:17:00,44.9,29.7,30.24,WNW,300,5.4,6.0,55,0.00,CLR,,0.00,828.0,WeatherDisplay:10.37,2013-04-16 19:17:00,
2013-04-16 14:22:00,44.8,30.5,30.24,NW,313,2.7,8.1,57,0.00,CLR,,0.00,809.0,WeatherDisplay:10.37,2013-04-16 19:22:00,
2013-04-16 14:27:00,45.2,30.4,30.24,NW,312,3.5,5.8,56,0.00,CLR,,0.00,812.0,WeatherDisplay:10.37,2013-04-16 19:27:00,
2013-04-16 14:32:00,46.4,30.2,30.24,NW,304,4.3,6.0,53,0.00,CLR,,0.00,809.0,WeatherDisplay:10.37,2013-04-16 19:32:00,
2013-04-16 14:37:00,46.1,30.8,30.24,NW,318,6.9,10.8,55,0.00,CLR,,0.00,798.0,WeatherDisplay:10.37,2013-04-16 19:37:00,
2013-04-16 14:42:00,46.2,30.9,30.24,North,355,1.7,6.0,55,0.00,SCT,,0.00,786.0,WeatherDisplay:10.37,2013-04-16 19:42:00,
2013-04-16 14:47:00,46.8,30.6,30.25,NW,321,4.9,8.4,53,0.00,SCT,,0.00,780.0,WeatherDisplay:10.37,2013-04-16 19:47:00,
2013-04-16 14:52:00,46.7,30.9,30.25,NW,317,2.6,3.6,54,0.00,SCT,,0.00,773.0,WeatherDisplay:10.37,2013-04-16 19:52:00,
2013-04-16 14:57:00,47.4,31.1,30.25,NE,36,0.5,3.6,53,0.00,SCT,,0.00,761.0,WeatherDisplay:10.37,2013-04-16 19:57:00,
2013-04-16 15:02:00,47.0,30.7,30.24,WNW,284,4.7,6.9,53,0.00,CLR,,0.00,754.0,WeatherDisplay:10.37,2013-04-16 20:02:00,
2013-04-16 15:07:00,46.8,30.6,30.24,WNW,300,1.3,7.2,53,0.00,CLR,,0.00,738.0,WeatherDisplay:10.37,2013-04-16 20:07:00,
2013-04-16 15:12:00,47.1,30.8,30.24,WNW,292,3.3,8.1,53,0.00,CLR,,0.00,735.0,WeatherDisplay:10.37,2013-04-16 20:12:00,
2013-04-16 15:17:00,46.8,30.6,30.24,NNW,327,2.5,3.6,53,0.00,CLR,,0.00,722.0,WeatherDisplay:10.37,2013-04-16 20:17:00,
2013-04-16 15:22:00,47.0,29.8,30.24,WNW,293,2.8,4.8,51,0.00,CLR,,0.00,712.0,WeatherDisplay:10.37,2013-04-16 20:22:00,
2013-04-16 15:27:00,47.0,29.3,30.24,WNW,286,2.5,6.9,50,0.00,CLR,,0.00,701.0,WeatherDisplay:10.37,2013-04-16 20:27:00,
2013-04-16 15:32:00,47.9,30.1,30.25,NNW,330,2.6,4.6,50,0.00,CLR,,0.00,691.0,WeatherDisplay:10.37,2013-04-16 20:32:00,
2013-04-16 15:37:00,47.6,30.3,30.25,WNW,294,3.5,4.8,51,0.00,CLR,,0.00,677.0,WeatherDisplay:10.37,2013-04-16 20:37:00,
2013-04-16 15:42:00,47.9,30.1,30.25,North,355,3.4,9.2,50,0.00,CLR,,0.00,668.0,WeatherDisplay:10.37,2013-04-16 20:42:00,
2013-04-16 15:47:00,48.3,29.5,30.25,NNE,13,3.9,7.2,48,0.00,CLR,,0.00,652.0,WeatherDisplay:10.37,2013-04-16 20:47:00,
2013-04-16 15:52:00,48.2,29.4,30.25,NW,323,4.8,8.4,48,0.00,CLR,,0.00,643.0,WeatherDisplay:10.37,2013-04-16 20:52:00,
2013-04-16 15:57:00,47.9,29.6,30.25,NW,321,5.5,8.4,49,0.00,CLR,,0.00,628.0,WeatherDisplay:10.37,2013-04-16 20:57:00,
2013-04-16 16:02:00,47.9,29.6,30.24,NW,314,4.9,6.0,49,0.00,CLR,,0.00,617.0,WeatherDisplay:10.37,2013-04-16 21:02:00,
2013-04-16 16:07:00,48.0,29.7,30.24,NNW,335,4.3,6.0,49,0.00,CLR,,0.00,603.0,WeatherDisplay:10.37,2013-04-16 21:07:00,
2013-04-16 16:12:00,48.6,29.3,30.24,NW,320,2.4,3.6,47,0.00,CLR,,0.00,589.0,WeatherDisplay:10.37,2013-04-16 21:12:00,
2013-04-16 16:17:00,48.5,29.7,30.25,NW,311,6.3,8.4,48,0.00,CLR,,0.00,577.0,WeatherDisplay:10.37,2013-04-16 21:17:00,
2013-04-16 16:22:00,48.8,28.9,30.25,NW,312,3.5,4.8,46,0.00,CLR,,0.00,561.0,WeatherDisplay:10.37,2013-04-16 21:22:00,
2013-04-16 16:27:00,48.6,30.8,30.25,NW,316,4.6,8.1,50,0.00,CLR,,0.00,545.0,WeatherDisplay:10.37,2013-04-16 21:27:00,
2013-04-16 16:32:00,48.6,30.8,30.25,NW,307,2.0,4.8,50,0.00,CLR,,0.00,533.0,WeatherDisplay:10.37,2013-04-16 21:32:00,
2013-04-16 16:37:00,48.9,30.6,30.25,WNW,286,3.3,4.8,49,0.00,CLR,,0.00,519.0,WeatherDisplay:10.37,2013-04-16 21:37:00,
2013-04-16 16:42:00,48.8,30.5,30.25,NW,315,3.9,8.4,49,0.00,CLR,,0.00,508.0,WeatherDisplay:10.37,2013-04-16 21:42:00,
2013-04-16 16:47:00,48.9,30.1,30.25,NW,325,5.9,6.0,48,0.00,CLR,,0.00,489.0,WeatherDisplay:10.37,2013-04-16 21:47:00,
2013-04-16 16:52:00,48.9,30.1,30.25,NW,322,1.5,4.8,48,0.00,CLR,,0.00,473.0,WeatherDisplay:10.37,2013-04-16 21:52:00,
2013-04-16 16:57:00,49.1,29.7,30.25,WNW,283,1.5,4.8,47,0.00,CLR,,0.00,461.0,WeatherDisplay:10.37,2013-04-16 21:57:00,
2013-04-16 17:02:00,49.4,30.0,30.25,NW,309,1.8,4.8,47,0.00,CLR,,0.00,446.0,WeatherDisplay:10.37,2013-04-16 22:02:00,
2013-04-16 17:07:00,49.8,29.8,30.25,NW,319,3.8,6.0,46,0.00,CLR,,0.00,427.0,WeatherDisplay:10.37,2013-04-16 22:07:00,
2013-04-16 17:12:00,49.8,29.8,30.25,WNW,284,3.6,7.2,46,0.00,CLR,,0.00,413.0,WeatherDisplay:10.37,2013-04-16 22:12:00,
2013-04-16 17:17:00,49.8,30.4,30.25,NW,325,5.5,7.2,47,0.00,CLR,,0.00,399.0,WeatherDisplay:10.37,2013-04-16 22:17:00,
2013-04-16 17:22:00,49.5,30.1,30.25,WNW,300,0.6,4.6,47,0.00,CLR,,0.00,385.0,WeatherDisplay:10.37,2013-04-16 22:22:00,
2013-04-16 17:27:00,49.4,29.5,30.25,NW,323,1.4,3.6,46,0.00,CLR,,0.00,367.0,WeatherDisplay:10.37,2013-04-16 22:27:00,
2013-04-16 17:32:00,49.4,30.5,30.25,West,269,1.6,7.2,48,0.00,CLR,,0.00,352.0,WeatherDisplay:10.37,2013-04-16 22:32:00,
2013-04-16 17:37:00,49.4,30.0,30.25,NW,305,4.3,4.8,47,0.00,CLR,,0.00,338.0,WeatherDisplay:10.37,2013-04-16 22:37:00,
2013-04-16 17:42:00,49.5,29.6,30.25,WNW,293,5.3,7.2,46,0.00,CLR,,0.00,322.0,WeatherDisplay:10.37,2013-04-16 22:42:00,
2013-04-16 17:47:00,49.8,30.9,30.25,NNW,329,5.4,8.4,48,0.00,CLR,,0.00,306.0,WeatherDisplay:10.37,2013-04-16 22:47:00,
2013-04-16 17:52:00,49.8,29.8,30.25,NW,317,1.8,4.8,46,0.00,CLR,,0.00,292.0,WeatherDisplay:10.37,2013-04-16 22:52:00,
2013-04-16 17:57:00,49.6,30.7,30.25,NW,313,2.4,4.8,48,0.00,CLR,,0.00,272.0,WeatherDisplay:10.37,2013-04-16 22:57:00,
2013-04-16 18:02:00,49.5,30.1,30.26,NNW,341,2.4,5.8,47,0.00,CLR,,0.00,255.0,WeatherDisplay:10.37,2013-04-16 23:02:00,
2013-04-16 18:07:00,49.8,30.4,30.26,NW,316,1.6,3.6,47,0.00,CLR,,0.00,211.0,WeatherDisplay:10.37,2013-04-16 23:07:00,
2013-04-16 18:12:00,49.8,29.8,30.26,NW,316,0.1,2.3,46,0.00,CLR,,0.00,146.0,WeatherDisplay:10.37,2013-04-16 23:12:00,
2013-04-16 18:17:00,49.6,30.2,30.26,NW,304,0.0,1.2,47,0.00,CLR,,0.00,165.0,WeatherDisplay:10.37,2013-04-16 23:17:00,
2013-04-16 18:22:00,49.9,29.9,30.26,NW,314,0.1,1.2,46,0.00,CLR,,0.00,97.0,WeatherDisplay:10.37,2013-04-16 23:22:00,
2013-04-16 18:27:00,50.1,29.0,30.26,NNW,343,3.1,4.8,44,0.00,CLR,,0.00,77.0,WeatherDisplay:10.37,2013-04-16 23:27:00,
2013-04-16 18:32:00,49.8,28.2,30.26,NNW,333,4.0,6.0,43,0.00,CLR,,0.00,98.0,WeatherDisplay:10.37,2013-04-16 23:32:00,
2013-04-16 18:37:00,49.6,28.0,30.26,West,279,3.3,4.8,43,0.00,CLR,,0.00,81.0,WeatherDisplay:10.37,2013-04-16 23:37:00,
2013-04-16 18:42:00,49.4,27.2,30.26,NNE,25,4.7,6.0,42,0.00,CLR,,0.00,70.0,WeatherDisplay:10.37,2013-04-16 23:42:00,
2013-04-16 18:47:00,49.2,27.6,30.26,NNE,22,1.4,3.6,43,0.00,CLR,,0.00,51.0,WeatherDisplay:10.37,2013-04-16 23:47:00,
2013-04-16 18:52:00,48.9,28.5,30.26,North,5,4.8,6.0,45,0.00,CLR,,0.00,53.0,WeatherDisplay:10.37,2013-04-16 23:52:00,
2013-04-16 18:57:00,48.8,28.9,30.26,NNW,327,1.8,3.6,46,0.00,CLR,,0.00,44.0,WeatherDisplay:10.37,2013-04-16 23:57:00,
2013-04-16 19:02:00,48.6,29.3,30.27,NNW,333,0.7,6.0,47,0.00,CLR,,0.00,39.0,WeatherDisplay:10.37,2013-04-17 00:02:00,
2013-04-16 19:07:00,48.5,30.2,30.27,NNW,333,0.0,0.0,49,0.00,CLR,,0.00,28.0,WeatherDisplay:10.37,2013-04-17 00:07:00,
2013-04-16 19:12:00,48.3,30.0,30.27,NNE,21,3.3,4.8,49,0.00,CLR,,0.00,30.0,WeatherDisplay:10.37,2013-04-17 00:12:00,
2013-04-16 19:17:00,47.7,29.5,30.27,NE,40,5.1,8.4,49,0.00,CLR,,0.00,25.0,WeatherDisplay:10.37,2013-04-17 00:17:00,
2013-04-16 19:22:00,47.3,29.6,30.27,NNE,20,4.9,6.0,50,0.00,CLR,,0.00,19.0,WeatherDisplay:10.37,2013-04-17 00:22:00,
2013-04-16 19:27:00,47.0,29.8,30.27,North,360,4.0,4.8,51,0.00,CLR,,0.00,16.0,WeatherDisplay:10.37,2013-04-17 00:27:00,
2013-04-16 19:32:00,46.7,30.5,30.28,NNE,16,5.9,7.2,53,0.00,CLR,,0.00,12.0,WeatherDisplay:10.37,2013-04-17 00:32:00,
2013-04-16 19:37:00,46.2,30.5,30.28,NNE,18,4.0,6.0,54,0.00,CLR,,0.00,9.0,WeatherDisplay:10.37,2013-04-17 00:37:00,
2013-04-16 19:42:00,45.7,30.4,30.28,North,9,6.6,10.8,55,0.00,CLR,,0.00,5.0,WeatherDisplay:10.37,2013-04-17 00:42:00,
2013-04-16 19:47:00,45.2,30.9,30.28,NNE,12,6.1,8.4,57,0.00,CLR,,0.00,0.0,WeatherDisplay:10.37,2013-04-17 00:47:00,
2013-04-16 19:52:00,44.8,30.5,30.28,North,11,6.9,9.6,57,0.00,CLR,,0.00,0.0,WeatherDisplay:10.37,2013-04-17 00:52:00,
2013-04-16 19:57:00,44.3,30.9,30.28,NNE,16,5.1,6.0,59,0.00,CLR,,0.00,0.0,WeatherDisplay:10.37,2013-04-17 00:57:00,
2013-04-16 20:02:00,44.1,30.7,30.28,NNE,15,5.5,7.2,59,0.00,CLR,,0.00,0.0,WeatherDisplay:10.37,2013-04-17 01:02:00,
2013-04-16 20:07:00,43.6,30.2,30.28,NNE,17,5.6,6.9,59,0.00,CLR,,0.00,0.0,WeatherDisplay:10.37,2013-04-17 01:07:00,
2013-04-16 20:12:00,43.5,30.1,30.28,NNW,342,7.3,9.6,59,0.00,CLR,,0.00,0.0,WeatherDisplay:10.37,2013-04-17 01:12:00,
2013-04-16 20:17:00,43.2,29.8,30.28,NNE,28,4.3,6.9,59,0.00,CLR,,0.00,0.0,WeatherDisplay:10.37,2013-04-17 01:17:00,
2013-04-16 20:22:00,43.1,30.1,30.28,NNE,32,3.2,4.6,60,0.00,CLR,,0.00,0.0,WeatherDisplay:10.37,2013-04-17 01:22:00,
2013-04-16 20:27:00,42.8,29.9,30.28,NNE,27,4.5,6.0,60,0.00,CLR,,0.00,0.0,WeatherDisplay:10.37,2013-04-17 01:27:00,
2013-04-16 20:32:00,42.6,29.7,30.29,NNE,22,0.0,1.2,60,0.00,CLR,,0.00,0.0,WeatherDisplay:10.37,2013-04-17 01:32:00,
2013-04-16 20:37:00,42.3,29.4,30.29,NNE,22,1.1,3.6,60,0.00,CLR,,0.00,0.0,WeatherDisplay:10.37,2013-04-17 01:37:00,
2013-04-16 20:42:00,42.2,29.3,30.29,NNE,22,2.6,3.6,60,0.00,CLR,,0.00,0.0,WeatherDisplay:10.37,2013-04-17 01:42:00,
2013-04-16 20:47:00,42.1,29.6,30.29,NNE,24,0.1,1.2,61,0.00,CLR,,0.00,0.0,WeatherDisplay:10.37,2013-04-17 01:47:00,
2013-04-16 20:52:00,41.8,29.3,30.29,NNE,24,0.1,1.2,61,0.00,CLR,,0.00,0.0,WeatherDisplay:10.37,2013-04-17 01:52:00,
2013-04-16 20:57:00,41.6,29.1,30.29,NNE,24,2.5,3.6,61,0.00,CLR,,0.00,0.0,WeatherDisplay:10.37,2013-04-17 01:57:00,
2013-04-16 21:02:00,41.3,29.3,30.31,NNE,24,0.0,0.0,62,0.00,CLR,,0.00,0.0,WeatherDisplay:10.37,2013-04-17 02:02:00,
2013-04-16 21:07:00,41.2,29.2,30.31,NNE,24,0.0,0.0,62,0.00,CLR,,0.00,0.0,WeatherDisplay:10.37,2013-04-17 02:07:00,
2013-04-16 21:12:00,41.1,29.1,30.31,NNE,24,0.1,1.2,62,0.00,CLR,,0.00,0.0,WeatherDisplay:10.37,2013-04-17 02:12:00,
2013-04-16 21:17:00,40.9,29.3,30.31,NNE,24,0.0,1.2,63,0.00,CLR,,0.00,0.0,WeatherDisplay:10.37,2013-04-17 02:17:00,
2013-04-16 21:22:00,40.8,29.2,30.31,NNE,24,0.0,0.0,63,0.00,CLR,,0.00,0.0,WeatherDisplay:10.37,2013-04-17 02:22:00,
2013-04-16 21:27:00,40.6,29.0,30.31,NNE,24,0.0,0.0,63,0.00,CLR,,0.00,0.0,WeatherDisplay:10.37,2013-04-17 02:27:00,
2013-04-16 21:32:00,40.5,29.3,30.33,NNE,24,0.1,1.2,64,0.00,CLR,,0.00,0.0,WeatherDisplay:10.37,2013-04-17 02:32:00,
2013-04-16 21:37:00,40.3,29.1,30.33,NNE,24,0.0,0.0,64,0.00,CLR,,0.00,0.0,WeatherDisplay:10.37,2013-04-17 02:37:00,
2013-04-16 21:42:00,40.2,29.0,30.33,NNE,24,0.0,0.0,64,0.00,CLR,,0.00,0.0,WeatherDisplay:10.37,2013-04-17 02:42:00,
2013-04-16 21:47:00,39.9,29.1,30.33,NNE,24,0.0,0.0,65,0.00,CLR,,0.00,0.0,WeatherDisplay:10.37,2013-04-17 02:47:00,
2013-04-16 21:52:00,39.8,29.0,30.33,NNE,24,0.0,0.0,65,0.00,CLR,,0.00,0.0,WeatherDisplay:10.37,2013-04-17 02:52:00,
2013-04-16 21:57:00,39.6,29.2,30.33,NNE,24,0.0,0.0,66,0.00,CLR,,0.00,0.0,WeatherDisplay:10.37,2013-04-17 02:57:00,
2013-04-16 22:02:00,39.5,29.1,30.33,NNE,24,0.0,0.0,66,0.00,CLR,,0.00,0.0,WeatherDisplay:10.37,2013-04-17 03:02:00,
2013-04-16 22:07:00,39.2,29.2,30.33,NNE,24,0.0,0.0,67,0.00,CLR,,0.00,0.0,WeatherDisplay:10.37,2013-04-17 03:07:00,
2013-04-16 22:12:00,38.9,28.9,30.33,NNE,24,0.0,0.0,67,0.00,CLR,,0.00,0.0,WeatherDisplay:10.37,2013-04-17 03:12:00,
2013-04-16 22:17:00,38.8,28.8,30.33,NNE,24,0.0,0.0,67,0.00,CLR,,0.00,0.0,WeatherDisplay:10.37,2013-04-17 03:17:00,
2013-04-16 22:22:00,38.6,28.6,30.33,NNE,24,0.0,0.0,67,0.00,CLR,,0.00,0.0,WeatherDisplay:10.37,2013-04-17 03:22:00,
2013-04-16 22:27:00,38.3,28.3,30.33,NNE,24,0.0,0.0,67,0.00,CLR,,0.00,0.0,WeatherDisplay:10.37,2013-04-17 03:27:00,
2013-04-16 22:32:00,38.2,28.6,30.33,NNE,24,0.0,0.0,68,0.00,CLR,,0.00,0.0,WeatherDisplay:10.37,2013-04-17 03:32:00,
2013-04-16 22:37:00,38.0,28.7,30.33,NNE,24,0.0,0.0,69,0.00,CLR,,0.00,0.0,WeatherDisplay:10.37,2013-04-17 03:37:00,
2013-04-16 22:42:00,37.9,28.6,30.33,NNE,24,0.0,0.0,69,0.00,CLR,,0.00,0.0,WeatherDisplay:10.37,2013-04-17 03:42:00,
2013-04-16 22:47:00,37.8,28.9,30.33,NNE,24,0.0,0.0,70,0.00,CLR,,0.00,0.0,WeatherDisplay:10.37,2013-04-17 03:47:00,
2013-04-16 22:52:00,37.6,29.4,30.33,NNE,24,0.0,0.0,72,0.00,CLR,,0.00,0.0,WeatherDisplay:10.37,2013-04-17 03:52:00,
2013-04-16 22:57:00,37.5,29.3,30.33,NNE,24,0.0,0.0,72,0.00,CLR,,0.00,0.0,WeatherDisplay:10.37,2013-04-17 03:57:00,
2013-04-16 23:00:00,37.5,29.6,30.33,NNE,24,0.0,0.0,73,0.00,CLR,,0.00,0.0,WeatherDisplay:10.37,2013-04-17 04:00:00,
2013-04-16 23:01:00,37.3,29.4,30.33,NNE,24,0.0,0.0,73,0.00,CLR,,0.00,0.0,WeatherDisplay:10.37,2013-04-17 04:01:00,
2013-04-16 23:06:00,37.3,29.8,30.33,NNE,24,0.0,0.0,74,0.00,CLR,,0.00,0.0,WeatherDisplay:10.37,2013-04-17 04:06:00,
2013-04-16 23:11:00,37.5,30.0,30.33,NNE,24,0.0,0.0,74,0.00,CLR,,0.00,0.0,WeatherDisplay:10.37,2013-04-17 04:11:00,
2013-04-16 23:16:00,37.5,30.6,30.34,NNE,24,0.0,0.0,76,0.00,CLR,,0.00,0.0,WeatherDisplay:10.37,2013-04-17 04:16:00,
2013-04-16 23:21:00,37.3,30.7,30.34,NNE,24,0.0,0.0,77,0.00,CLR,,0.00,0.0,WeatherDisplay:10.37,2013-04-17 04:21:00,
2013-04-16 23:26:00,37.0,31.1,30.34,NNE,24,0.0,0.0,79,0.00,CLR,,0.00,0.0,WeatherDisplay:10.37,2013-04-17 04:26:00,
2013-04-16 23:31:00,36.9,31.0,30.34,NNE,24,0.0,0.0,79,0.00,CLR,,0.00,0.0,WeatherDisplay:10.37,2013-04-17 04:31:00,
2013-04-16 23:36:00,36.8,31.2,30.34,NNE,24,0.0,0.0,80,0.00,CLR,,0.00,0.0,WeatherDisplay:10.37,2013-04-17 04:36:00,
2013-04-16 23:41:00,36.5,30.9,30.34,NNE,24,0.0,0.0,80,0.00,CLR,,0.00,0.0,WeatherDisplay:10.37,2013-04-17 04:41:00,
2013-04-16 23:46:00,36.3,30.7,30.34,NNE,24,0.0,0.0,80,0.00,CLR,,0.00,0.0,WeatherDisplay:10.37,2013-04-17 04:46:00,
2013-04-16 23:51:00,36.0,30.7,30.34,NNE,24,0.0,0.0,81,0.00,CLR,,0.00,0.0,WeatherDisplay:10.37,2013-04-17 04:51:00,
2013-04-16 23:56:00,35.9,30.6,30.34,NNE,24,0.0,0.0,81,0.00,CLR,,0.00,0.0,WeatherDisplay:10.37,2013-04-17 04:56:00,